Home > Weather > Nashville > Past weeks

Flag for USA Past Weather in Nashville, Tennessee, USA — Yesterday and Last 2 Weeks

Now
85 °F

Passing clouds.


Feels Like: 91 °F
Forecast: 75 / 94 °F
Wind: No wind

Location: Nashville International Airport

Current Time: Aug 24, 2016 at 8:11:28 PM

Latest Report: Aug 24, 2016 at 7:53 PM


Visibility: 10 mi

Pressure: 30.10 "Hg

Humidity: 65%

Dew Point: 72 °F

Location of NashvilleLocation

Past Weather in Nashville — Graph

°F

Nashville Temperature Yesterday

Maximum temperature yesterday: 86 °F (at 2:53 PM)
Minimum temperature yesterday: 63 °F (at 2:53 AM)
Average temperature yesterday: 75 °F

High & Low Weather Summary for the Past Weeks

 TemperatureHumidityPressure
High92 °F (Aug 15, 2:53 PM)97% (Aug 23, 4:53 AM)30.27 "Hg (Aug 23, 4:53 AM)
Low62 °F (Aug 22, 5:53 AM)44% (Aug 15, 1:53 PM)29.80 "Hg (Aug 20, 3:53 PM)
Average79 °F76%30.05 "Hg
* Reported Aug 9 5:53 PM — Aug 24 5:53 PM, Nashville, Weather by CustomWeather, © 2016

Note: Actual official high and low records may vary slightly from our data, if they occured in-between our weather recording intervals... More about our weather records

Advertising

Nashville Weather History for the Previous 24 Hours

Scroll right to see more
 ConditionsComfort  
Time TempWeatherWind HumidityBarometerVisibility
5:53 PM
Wed, Aug 24
90 °FPartly sunny.6 mph52%30.10 "Hg10 mi
4:53 PM91 °FPartly sunny.10 mph52%30.10 "Hg10 mi
3:53 PM90 °FBroken clouds.6 mph54%30.11 "Hg10 mi
2:53 PM91 °FBroken clouds.7 mph52%30.13 "Hg10 mi
1:53 PM91 °FCloudy.8 mph52%30.16 "Hg10 mi
12:53 PM90 °FCloudy.3 mph54%30.18 "Hg10 mi
11:53 AM89 °FCloudy.9 mph55%30.19 "Hg10 mi
10:53 AM86 °FMostly cloudy.9 mph61%30.20 "Hg10 mi
9:53 AM84 °FMore clouds than sun.5 mph63%30.21 "Hg10 mi
8:53 AM79 °FMore clouds than sun.6 mph74%30.20 "Hg10 mi
7:53 AM75 °FMore clouds than sun.3 mph85%30.21 "Hg10 mi
6:53 AM71 °FBroken clouds.No wind90%30.19 "Hg9 mi
5:53 AM72 °FPartly cloudy.No wind87%30.18 "Hg10 mi
4:53 AM72 °FPassing clouds.No wind87%30.17 "Hg10 mi
3:53 AM72 °FClear.3 mph87%30.16 "Hg10 mi
2:53 AM72 °FClear.No wind91%30.16 "Hg10 mi
1:53 AM72 °FPassing clouds.3 mph91%30.17 "Hg10 mi
12:53 AM72 °FPassing clouds.5 mph91%30.18 "Hg10 mi
11:53 PM
Tue, Aug 23
74 °FPassing clouds.3 mph88%30.18 "Hg10 mi
10:53 PM74 °FPassing clouds.3 mph88%30.19 "Hg10 mi
9:53 PM76 °FPassing clouds.No wind85%30.19 "Hg10 mi
8:53 PM78 °FPassing clouds.No wind76%30.18 "Hg10 mi
Weather by CustomWeather, © 2016

See weather overviewHow to use our weather pages